Location: Dos Caminos
(10.5167°N, 66.8333°W)
Time: 03:19:01
(UTC+00:00)

Daily predictions for brighter satellites

Satellite Brightness Start Highest point End
(mag) Time Altitude Azimuth Time Altitude Azimuth Time Altitude Azimuth
Palapa 6 Rocket 3.1 00:02:19 10° SW 00:05:47 36° SSE 00:05:53 36° SSE
ATLAS 5 CENTAUR R/B 2.4 00:06:41 10° NW 00:07:57 12° N 00:08:46 11° NNE
Cosmos 546 4.5 00:05:20 10° SSW 00:09:14 71° SE 00:12:10 17° NE
ATLAS 2AS CENTAUR R/B 3.2 00:01:41 10° SSW 00:09:21 74° WNW 00:17:15 10° NNE
Cosmos 1689 Rocket 4.1 00:08:16 10° NNW 00:10:39 27° WNW 00:13:01 10° SW
Cosmos 1825 2.5 00:14:04 44° ENE 00:14:04 44° ENE 00:17:08 10° NNE
Cosmos 2034 Rocket 3.9 00:07:45 10° N 00:14:01 81° E 00:19:52 12° S
Cosmos 1937 Rocket 4.1 00:12:00 10° NNW 00:17:02 55° WSW 00:21:30 13° S
Atlas Centaur 2 4.0 00:15:04 10° WNW 00:17:37 15° NNW 00:19:58 10° NNE
Cosmos 405 Rocket 4.2 00:16:21 10° SSW 00:19:50 37° W 00:23:24 10° NNW
SJ-6B 3.8 00:21:26 31° NE 00:21:26 31° NE 00:23:53 10° N
OBJECT-B 2.3 00:21:48 27° NNE 00:21:48 27° NNE 00:23:29 10° N
Meteor 1-27 4.5 00:16:10 10° N 00:21:45 49° E 00:23:02 42° ESE
CSL-04 Debris 4.4 00:21:23 16° S 00:25:48 68° WSW 00:31:14 10° NNW
ATLAS 3B CENTAUR R/B 2.8 00:28:29 10° WNW 00:33:45 76° SSW 00:37:23 40° SE
CZ-4 R/B 4.4 00:33:07 10° SW 00:34:50 12° W 00:36:34 10° WNW
Cosmos 372 Rocket 4.5 00:37:48 10° NNW 00:42:52 56° WSW 00:44:34 38° SSW
SYLDA PLATFORM 4.5 00:33:56 10° W 00:43:20 48° SSW 00:43:28 48° S
CZ-3C R/B 3.4 00:27:47 10° W 00:45:05 29° SW 00:47:22 23° SSW
USA 267 3.5 00:41:49 10° NNE 00:48:16 66° NW 00:54:45 10° SW
CENTAUR R/B 3.7 00:41:32 10° N 00:49:45 42° ENE 00:50:37 41° ENE
SWIFT 3.7 00:47:09 10° W 00:49:49 34° WSW 00:49:49 34° WSW
Cosmos-2242 3.7 00:48:15 10° NNW 00:51:33 50° NW 00:51:33 50° NW
Aurora 2 Rocket 4.3 00:45:40 10° WSW 00:53:52 89° NNW 00:59:21 33° ENE
Ariane Rocket 4.1 00:57:20 33° NNE 00:57:20 33° NNE 01:00:16 10° N
Cosmos 1634 Rocket 3.8 00:52:56 10° N 00:59:09 84° E 00:59:09 84° E
Helios 1A Rocket 4.4 01:00:56 33° NW 01:00:56 33° NW 01:03:25 10° NNW
ARIANE 5 R/B 4.4 01:01:46 10° SW 01:02:35 11° SW 01:02:35 11° SW
USA 238 DEB 4.3 00:56:35 10° N 01:03:19 48° NE 01:03:19 48° NE
USA 238 4.3 00:56:41 10° N 01:03:23 47° NE 01:03:23 47° NE
Cosmos 2082 Rocket 3.6 01:15:51 10° SW 01:20:52 34° WNW 01:25:54 10° N
ATLAS 2A CENTAUR R/B 4.0 01:59:56 10° WNW 02:16:04 54° NW 02:16:04 54° NW
Cosmos 1844 Rocket 4.5 07:22:02 27° ENE 07:22:02 27° ENE 07:25:00 10° NE
Atlas Centaur 2 4.0 07:39:52 22° ESE 07:39:52 22° ESE 07:42:01 10° ESE
Chandra Rocket (1) 3.7 07:38:47 10° WNW 07:51:35 51° NNE 07:55:44 10° E
Centaur D-1A AC-32 4.4 07:51:58 25° NNW 07:53:11 27° N 08:03:09 10° ENE
Cosmos 1339 Rocket 4.4 07:59:37 10° N 08:05:53 84° WNW 08:05:53 84° WNW
SL-08 R/B 4.4 08:11:25 77° WSW 08:11:41 79° W 08:18:09 10° N
SL-08 R/B 3.6 08:11:44 65° E 08:11:57 66° ENE 08:16:49 10° N
CZ-4C R/B 4.4 08:05:17 10° N 08:13:00 41° ENE 08:20:59 10° SE
Meteor 2-10 4.4 08:15:16 46° SE 08:16:19 56° E 08:21:17 10° NNE
Cosmos 1470 4.2 08:16:37 33° ESE 08:16:56 34° E 08:20:30 10° NNE
Meteor 2-20 4.3 08:11:40 10° N 08:17:49 90° E 08:19:59 43° S
ALOS 2.5 08:14:25 10° N 08:18:16 62° N 08:18:16 62° N
Cosmos 1844 3.9 08:25:40 51° NW 08:25:40 51° NW 08:30:33 10° N
X-37B 2.6 08:28:10 29° ENE 08:28:10 29° ENE 08:29:56 10° NE
Cosmos 1727 Rocket 4.2 08:23:54 10° N 08:30:08 70° E 08:36:25 10° S
Meteosat 1 Rocket2 4.1 08:39:08 28° SSE 08:39:08 28° SSE 08:41:21 10° SE
Cosmos 1943 3.5 08:34:27 10° N 08:40:05 66° ENE 08:45:42 10° SSE
Okean 1 Rocket 3.3 08:40:47 29° S 08:42:55 69° E 08:47:15 10° N
Cosmos 1975 Rocket 4.2 08:39:47 10° NNW 08:42:09 28° NW 08:42:09 28° NW
Cosmos 1315 Rocket 3.1 08:44:26 51° WNW 08:44:26 51° WNW 08:47:58 10° N
CZ-2C R/B 4.1 08:42:08 10° NNW 08:43:44 17° NW 08:43:44 17° NW
Cosmos 1484 Rocket 2.8 08:41:49 10° N 08:45:45 63° WNW 08:45:49 62° W
GPS 2-17 Rocket1 4.4 08:46:44 23° NW 08:48:21 29° N 08:52:12 10° NE
Cosmos 2278 Rocket 3.7 08:46:24 10° SSE 08:51:24 33° ESE 08:56:24 10° NE
Cosmos 1626 3.1 08:49:18 10° NNW 08:51:36 32° NW 08:51:36 32° NW
BLOCK DM-SL R/B 3.6 08:58:40 24° WSW 09:03:26 58° S 09:07:29 10° ESE
Cosmos 1844 Rocket 4.4 09:03:44 15° WNW 09:03:44 15° WNW 09:06:49 10° NW
Cosmos 1607 4.1 08:58:34 14° SSW 09:04:09 78° ESE 09:10:36 10° NNE
FALCON 9 DEB 3.8 09:03:39 27° S 09:04:46 40° SE 09:07:35 10° NE
Meteor 1-24 Rocket 4.3 09:01:08 10° N 09:06:49 60° E 09:12:18 10° SSE
SeaSat 1 2.8 09:02:00 10° NNE 09:06:52 64° ESE 09:11:43 10° SSW
YAOGAN 6 4.3 09:04:28 10° NE 09:07:47 33° E 09:11:06 10° SSE
Cosmos 968 Rocket 3.6 09:03:15 10° S 09:08:20 76° ESE 09:13:25 10° NNE
ARIANE 5 DEB (SYLDA) 3.1 09:09:15 24° SSW 09:09:44 26° S 09:11:55 10° ESE
Orbus 7S 4.3 09:09:45 25° S 09:10:36 33° SSE 09:13:48 10° E
Palapa 6 Rocket 4.3 09:04:40 11° WNW 09:11:15 83° NNE 09:19:10 10° ESE
Aureole 1 Rocket 4.3 09:11:07 22° W 09:11:57 24° WNW 09:16:04 10° NNW
Meteor 2-5 Rocket 3.7 09:07:14 10° N 09:13:04 88° W 09:18:47 10° S
Cosmos 468 Rocket 4.2 09:08:50 10° N 09:14:04 73° ENE 09:19:13 10° SSE
Meteor 1-31 Rocket 2.8 09:10:27 10° NNE 09:14:14 78° ESE 09:18:04 10° S
Cosmos 1025 Rocket 3.8 09:14:05 10° NNW 09:17:50 29° W 09:20:35 16° SW
Cosmos 44 3.1 09:13:39 10° NNW 09:18:27 71° WSW 09:22:57 10° SSE
Envisat 3.5 09:15:44 10° NNE 09:20:44 62° ESE 09:25:44 10° S
ATLAS V CENTAUR R/B 4.1 09:18:57 10° NW 09:21:06 18° N 09:22:35 10° NE
Cosmos 1953 3.0 09:17:31 10° S 09:21:29 56° E 09:25:27 10° NNE
FALCON 9 DEB 3.4 09:21:01 16° SSW 09:23:14 52° SE 09:26:09 10° NE
MOS 1 Rocket 3.5 09:18:43 10° S 09:23:17 50° W 09:28:08 10° NNW
ARIANE 5 R/B 3.7 09:20:37 17° SW 09:23:26 30° S 09:26:33 10° ESE
Atlas Centaur 2 3.3 09:22:33 18° WSW 09:25:23 26° SSW 09:30:50 10° SSE
ADEOS 3.5 09:21:30 10° NNE 09:26:43 88° WNW 09:31:56 10° SSW
Cosmos 1603 4.2 09:22:19 10° NW 09:27:24 36° WSW 09:32:33 10° S
Cosmos 1758 4.1 09:26:22 14° SW 09:29:08 31° W 09:32:39 10° NNW
CZ-4B R/B 4.2 09:27:45 10° NNE 09:31:13 36° E 09:34:36 10° SSE
GPS 2-04 Rocket1 3.6 09:34:00 13° W 09:37:11 36° NW 09:40:52 10° NNE
FALCON 9 DEB 2.7 09:34:57 13° SW 09:37:35 72° NW 09:40:34 10° NNE
CZ-3 R/B 3.8 09:15:06 12° W 09:39:25 44° NNW 09:46:51 10° NE
GEOS 3 Rocket 3.8 09:36:02 10° SSE 09:41:14 54° WSW 09:46:26 10° NW
Longmarch 3A Rocket 1.7 09:37:56 11° WSW 09:43:01 53° NNW 09:45:06 10° NE
Cosmos 1455 Rocket 3.0 09:39:30 10° S 09:43:57 73° W 09:48:22 10° N
Cosmos 1544 Rocket 4.4 09:40:24 10° S 09:44:46 56° E 09:49:06 10° NNE
Delta 198 3.6 09:43:41 10° WSW 09:47:45 72° NNW 09:52:35 10° ENE
Cosmos 1908 3.3 09:44:26 10° SSW 09:48:12 54° W 09:51:56 10° N
Meteor 1-16 Rocket 4.1 09:43:04 10° SSW 09:48:36 70° W 09:53:57 10° N
Cosmos 1346 Rocket 4.0 09:46:20 10° NW 09:49:19 21° W 09:52:18 10° SW
Cosmos 841 Rocket 3.9 09:45:18 10° N 09:50:32 70° ENE 09:55:46 10° SSE
USA 281 3.2 09:46:18 10° SSE 09:52:50 71° WSW 09:59:22 10° NNW
USA 81 4.1 09:50:32 10° S 09:55:48 88° E 10:01:04 10° N
ARIANE 5 R/B 4.0 09:41:56 10° W 10:47:25 63° S 10:52:32 10° ESE
